{"data":{"norad_id":67318,"epoch":"2026-09-19T11:15:52.042176Z","epoch_age_seconds":164508,"freshness":"FRESH","line1":"1 67318U 26002P   26262.46935234  .00006184  00000+0  23398-3 0  9995","line2":"2 67318  43.0036 311.0213 0001485 265.8256  94.2426 15.27587911 40777","mean_motion":15.27587911,"eccentricity":0.0001485,"inclination_deg":43.0036,"raan_deg":311.0213,"arg_perigee_deg":265.8256,"mean_anomaly_deg":94.2426,"bstar":0.00023398,"rev_number":4077,"period_min":94.266260529473,"perigee_km":482.00652514436,"apogee_km":484.04429037947,"semimajor_km":6861.1624077619,"source":"CELESTRAK","updated_at":"2026-09-20T09:00:43.505600Z"}}